Kosmos-571

operational
NORAD ID: 6682 Int'l Des: 1973-037 Owner: GUKOSR Country: SU
LEO

Über Kosmos-571

Beschreibung wird geladen...

Live-Position

3D-Globus wird geladen...

Nächste Überflüge

Höhenverlauf

Altitude vs Time

uPlot chart will show altitude changes over time

Zweizeiliger Elementsatz

1 06682U 73037H 26063.63797662 -.00000019 00000-0 -14283-4 0 9999
2 06682 74.0183 44.4076 0103158 187.8975 294.4944 12.65924482437064
Epoch: 4. März 2026 • Age: 22 hours

Aktueller Status

Höhe 1479.6 km
Geschwindigkeit 7.09 km/s
Subsatellitenpunkt -7.68°S, 94.02°W
Typ other

Große Konstellationen

Loading constellations...